ARABSAT-7B (BADR-8)

Last updated on Wed Sep 09 2026 00:03:03 GMT+0000 (Coordinated Universal Time)

1 56757U 23075A 26251.52152896 .00000124 00000+0 00000+0 0 9996 2 56757 0.0787 25.0150 0001717 349.3291 187.0039 1.00273029 11952
UTC large
Height (km)
Speed (km/s)
/
Latitude / Longitude
Inclination (degrees)
Orbital Period (minutes)
Azimuth
Elevation
Range (km)
Doppler Factor

Next 0 passes for location: London (51.5072 / 0.1276)

No passes found over London.
ARABSAT-7B (BADR-8)